[[{"header":{"parameterUnit":"m.s-1","parameterCategory":1,"la1":30.2991,"la2":30.254,"lo1":-89.0895,"lo2":-89.0444,"dy":0.0017,"dx":0.0017,"nx":28,"ny":28,"refTime":"2026-01-02T09:00:00:Z","depth":0,"parameterNumber":2,"parameterNumberName":"U-component_of_WINDS"},"data":[0,0,0,0,0,0,0,0,0,0,0,0,0,0,0,0,0,0,0,0,0,0,0,0,0,0,0,0,0,0,0,0,0,0,0,0,0,0,0,0,0,0,0,0,0,0,0,0,0,0,0,0,0,0,0,0,0,0,0.4578,0.4579,0,0.4633,0.4634,0.4634,0.4653,0.4652,0.4652,0.4652,0.471,0.4712,0.4714,0,0,0,0,0,0,0,0,0,0,0,0,0,0.4491,0.4493,0.4578,0.4579,0.4579,0.4633,0.4634,0.4635,0.4653,0.4652,0.4652,0.4652,0.4709,0.4712,0.4714,0,0,0,0,0,0,0,0,0,0,0,0,0,0.4536,0.4493,0.4578,0.4595,0.4597,0.4633,0.4634,0.4635,0.4653,0.4652,0.4652,0.4652,0.4709,0.4711,0.4714,0.4737,0,0,0.4722,0.4723,0,0,0,0,0,0,0,0,0.4533,0.4539,0.4592,0.4594,0.4596,0.4636,0.4624,0.4669,0.4653,0.4632,0.4652,0.4652,0.4686,0.469,0.4701,0.474,0.4743,0.4722,0.4724,0.4725,0.4726,0,0,0,0,0,0,0,0.453,0.4537,0.46,0.4592,0.4595,0.4601,0.4607,0.4633,0.466,0.4633,0.4635,0.4641,0.4687,0.4699,0.4703,0.4743,0.4722,0.4725,0.4726,0.4727,0.4807,0.4807,0,0,0,0,0,0,0.4524,0.4534,0.4598,0.4602,0.4563,0.4602,0.4609,0.4623,0.466,0.4665,0.4641,0.4642,0.4694,0.47,0.4705,0.4736,0.4725,0.4727,0.4729,0.4806,0.4807,0.4807,0,0,0,0,0,0,0.4522,0.4529,0.4596,0.4568,0.4577,0.4604,0.462,0.4625,0.4637,0.4666,0.4671,0.4648,0.4694,0.4701,0.473,0.4738,0.4729,0.4731,0.4805,0.4806,0.4807,0.4798,0,0,0,0,0,0,0.4519,0.4529,0.4537,0.4568,0.4578,0.4619,0.4621,0.4626,0.4641,0.4642,0.4674,0.4679,0.4695,0.4726,0.4732,0.4742,0.4733,0.4805,0.4806,0.4807,0.4797,0.4798,0.4799,0,0,0,0,0,0.4516,0.4532,0.4537,0.4545,0.4589,0.4619,0.4625,0.4643,0.4641,0.4651,0.467,0.4678,0.4736,0.4728,0.4736,0.4746,0.4804,0.4805,0.4807,0.4797,0.4798,0.4799,0,0,0,0,0,0,0.4501,0.4536,0.4543,0.4569,0.4591,0.4622,0.4634,0.4643,0.4666,0.4666,0.4687,0.4694,0.4721,0.4737,0.4727,0.4772,0.4771,0.4774,0.4761,0.4762,0.4763,0.4759,0.4735,0,0,0,0,0,0.4501,0.4521,0.4551,0.4572,0.4583,0.4606,0.462,0.4632,0.4655,0.4665,0.4686,0.4709,0.4733,0.4748,0.4772,0.48,0.4808,0.4811,0.4812,0.4812,0.4814,0.4832,0.4834,0.4811,0.4811,0.4811,0,0,0.4501,0.4523,0.4534,0.4569,0.4588,0.461,0.4614,0.4636,0.4653,0.4669,0.4697,0.4713,0.4741,0.4769,0.4783,0.4783,0.4823,0.4814,0.4814,0.4816,0.4833,0.4836,0.4838,0.4812,0.4812,0.4812,0,0,0.4511,0.4529,0.4549,0.4568,0.4596,0.4612,0.4616,0.4647,0.4658,0.4687,0.4699,0.472,0.476,0.478,0.4795,0.4815,0.4824,0.4822,0.4826,0.4843,0.4845,0.4846,0.4855,0.4858,0.4824,0.4824,0.4824,0,0.4508,0.454,0.4558,0.458,0.4596,0.4611,0.4632,0.465,0.4684,0.4695,0.4694,0.4746,0.4766,0.48,0.4805,0.4817,0.4824,0.4819,0.4843,0.4845,0.4847,0.4855,0.4858,0.4824,0.4824,0.4824,0.4824,0,0.4535,0.4557,0.457,0.4603,0.462,0.4641,0.4664,0.468,0.469,0.4707,0.4737,0.4761,0.479,0.4799,0.481,0.4836,0.4835,0.4838,0.4838,0.4848,0.4857,0.486,0.4824,0.4824,0.4824,0.4824,0,0,0.4537,0.458,0.4585,0.46,0.4633,0.4651,0.4674,0.4703,0.4716,0.474,0.476,0.4795,0.4799,0.4816,0.4829,0.4844,0.486,0.4846,0.4847,0.4849,0.4892,0.489,0.4893,0.4866,0.4867,0.4867,0.489,0,0.4552,0.4593,0.4611,0.4644,0.4666,0.4681,0.4702,0.4724,0.4741,0.4763,0.4781,0.4806,0.4808,0.4819,0.4834,0.4855,0.4869,0.4854,0.4887,0.4888,0.488,0.4897,0.4894,0.4915,0.4893,0.4894,0.4894,0,0.4575,0.4599,0.4634,0.4666,0.4676,0.4693,0.4722,0.4742,0.4769,0.478,0.4801,0.4813,0.484,0.4837,0.4874,0.4863,0.4878,0.489,0.4891,0.4896,0.4892,0.4903,0.4921,0.4925,0.4899,0.4899,0.4899,0,0.4574,0.4615,0.4642,0.4655,0.4692,0.4705,0.4721,0.4747,0.4764,0.4789,0.4801,0.4829,0.4844,0.4866,0.4887,0.4883,0.4923,0.4922,0.4934,0.4934,0.4942,0.4941,0.4964,0.495,0.495,0.495,0.495,0,0.459,0.4611,0.4642,0.4659,0.4684,0.4705,0.4729,0.4747,0.4771,0.4792,0.4807,0.4827,0.4853,0.4876,0.4893,0.4922,0.4929,0.4939,0.4944,0.4938,0.4937,0.4949,0.4948,0.4951,0.4951,0.4951,0.4951,0,0.4593,0.4614,0.4645,0.4678,0.4687,0.4704,0.4733,0.475,0.4768,0.4795,0.4802,0.4831,0.4859,0.4882,0.4919,0.4931,0.4962,0.4966,0.4952,0.4955,0.4966,0.4965,0.4998,0.5004,0.4985,0.4985,0.4986,0,0.4601,0.4618,0.4653,0.4669,0.4685,0.4709,0.4726,0.4748,0.4766,0.4799,0.4813,0.4843,0.4867,0.4913,0.4937,0.4967,0.4972,0.4982,0.4977,0.4972,0.4974,0.4973,0.4976,0.4982,0.4983,0.4983,0.4983,0,0.4615,0.4625,0.4649,0.4678,0.4698,0.4721,0.4745,0.4757,0.4784,0.4803,0.4832,0.4852,0.4891,0.4921,0.4953,0.4971,0.4982,0.4984,0.4989,0.4984,0.4976,0.4982,0.4955,0.4983,0.4983,0.4983,0.4983,0.4983,0.4622,0.4638,0.4666,0.4693,0.4713,0.4736,0.4754,0.4774,0.4799,0.4832,0.4844,0.4875,0.4904,0.4948,0.4966,0.4991,0.4992,0.4999,0.5001,0.5002,0.5002,0.4971,0.4997,0.4997,0.4997,0.4997,0.4997,0,0.4637,0.4656,0.468,0.4714,0.4735,0.4743,0.4771,0.4789,0.4815,0.4841,0.4865,0.49,0.493,0.4957,0.4989,0.5004,0.501,0.5011,0.5011,0.5015,0.4999,0.4992,0.5006,0.5006,0.5006,0.5006,0.5006,0.5006,0.4647,0.4676,0.469,0.4729,0.4749,0.4778,0.4794,0.4815,0.4836,0.4874,0.4899,0.4916,0.4943,0.4977,0.5005,0.5012,0.5024,0.5024,0.5033,0.5017,0.5016,0.5015,0.5009,0.5026,0.5026,0.5048,0.5048,0.5048]},{"header":{"parameterUnit":"m.s-1","parameterCategory":1,"la1":30.2991,"la2":30.254,"lo1":-89.0895,"lo2":-89.0444,"dy":0.0017,"dx":0.0017,"nx":28,"ny":28,"refTime":"2026-01-02T09:00:00:Z","depth":0,"parameterNumber":3,"parameterNumberName":"V-component_of_WINDS"},"data":[0,0,0,0,0,0,0,0,0,0,0,0,0,0,0,0,0,0,0,0,0,0,0,0,0,0,0,0,0,0,0,0,0,0,0,0,0,0,0,0,0,0,0,0,0,0,0,0,0,0,0,0,0,0,0,0,0,0,3.4716,3.4716,0,3.4741,3.4741,3.4741,3.4718,3.4717,3.4716,3.4716,3.474,3.4741,3.4742,0,0,0,0,0,0,0,0,0,0,0,0,0,3.4649,3.465,3.4716,3.4716,3.4716,3.4741,3.4741,3.4741,3.4718,3.4717,3.4716,3.4715,3.4739,3.4741,3.4743,0,0,0,0,0,0,0,0,0,0,0,0,0,3.4676,3.4651,3.4716,3.4708,3.4708,3.4741,3.4741,3.4741,3.4719,3.4717,3.4716,3.4715,3.4738,3.4741,3.4743,3.4784,0,0,3.475,3.4751,0,0,0,0,0,0,0,0,3.4675,3.4679,3.4709,3.4709,3.4708,3.4725,3.4726,3.4756,3.4719,3.4714,3.4716,3.4714,3.4736,3.4738,3.4746,3.4785,3.4786,3.475,3.4751,3.4752,3.4753,0,0,0,0,0,0,0,3.4673,3.4678,3.4726,3.4709,3.4709,3.4703,3.4706,3.4732,3.4732,3.4715,3.4713,3.4716,3.4735,3.4744,3.4746,3.4787,3.475,3.4752,3.4753,3.4754,3.4865,3.4866,0,0,0,0,0,0,3.4672,3.4676,3.4725,3.4726,3.4688,3.4706,3.4708,3.4721,3.4732,3.4732,3.4718,3.4715,3.474,3.4743,3.4747,3.4798,3.4752,3.4754,3.4756,3.4863,3.4865,3.4867,0,0,0,0,0,0,3.4671,3.4676,3.4724,3.4701,3.4706,3.4708,3.4723,3.4722,3.473,3.4734,3.4734,3.4726,3.4739,3.4744,3.4776,3.4799,3.4755,3.4757,3.4861,3.4864,3.4866,3.49,0,0,0,0,0,0,3.4669,3.4676,3.4692,3.4701,3.4708,3.4752,3.4724,3.4724,3.4735,3.4732,3.4742,3.4743,3.4739,3.4773,3.4778,3.4801,3.4759,3.4859,3.4862,3.4865,3.4897,3.4903,3.4909,0,0,0,0,0,3.4666,3.4699,3.4692,3.4698,3.4727,3.4754,3.4757,3.4753,3.4736,3.4752,3.4755,3.4742,3.4795,3.4776,3.4782,3.4806,3.4858,3.4861,3.4865,3.4894,3.4902,3.4908,0,0,0,0,0,0,3.4691,3.47,3.4693,3.473,3.4741,3.475,3.4769,3.4761,3.4776,3.4773,3.4766,3.4769,3.4803,3.4807,3.4786,3.4848,3.4824,3.4829,3.4844,3.4851,3.4857,3.4856,3.4761,0,0,0,0,0,3.4701,3.4721,3.4728,3.476,3.4767,3.4767,3.4778,3.4774,3.4786,3.479,3.4795,3.4806,3.4826,3.4839,3.4856,3.4897,3.49,3.4917,3.4923,3.4927,3.4932,3.4956,3.4964,3.4878,3.4878,3.4878,0,0,3.472,3.4728,3.4742,3.4766,3.4774,3.4796,3.4771,3.4795,3.4812,3.4793,3.4825,3.4829,3.4842,3.4879,3.4896,3.4884,3.4957,3.4932,3.4936,3.4938,3.4961,3.4969,3.4976,3.4881,3.488,3.488,0,0,3.4769,3.4776,3.4805,3.4815,3.4828,3.4829,3.4836,3.4847,3.4849,3.4881,3.4868,3.4888,3.4921,3.4931,3.4941,3.4996,3.4985,3.5002,3.5033,3.5057,3.5064,3.507,3.5092,3.5099,3.5006,3.5006,3.5006,0,3.4792,3.4825,3.4821,3.4847,3.4858,3.4844,3.4874,3.4883,3.4901,3.491,3.4896,3.494,3.4947,3.4987,3.5001,3.5009,3.5018,3.5001,3.5063,3.5069,3.5075,3.5095,3.5103,3.5008,3.5008,3.5008,3.5008,0,3.4854,3.4878,3.4899,3.492,3.4933,3.4961,3.4961,3.4976,3.4971,3.4973,3.5007,3.5015,3.5036,3.5045,3.504,3.5086,3.5079,3.5064,3.504,3.5085,3.5105,3.5112,3.5011,3.5011,3.501,3.501,0,0,3.4917,3.4937,3.4945,3.4955,3.497,3.4988,3.5016,3.5037,3.5051,3.5065,3.5089,3.5118,3.5106,3.5117,3.5113,3.5134,3.518,3.5117,3.5117,3.513,3.5234,3.5246,3.5255,3.5173,3.5174,3.5175,3.5234,0,3.4968,3.5017,3.5015,3.5061,3.5084,3.5072,3.5096,3.5108,3.5112,3.5132,3.5135,3.5158,3.5139,3.5146,3.5165,3.517,3.5201,3.5166,3.5196,3.5197,3.5195,3.5265,3.5277,3.5331,3.5241,3.5242,3.5243,0,3.5033,3.5051,3.51,3.5115,3.5124,3.5146,3.5167,3.5186,3.52,3.5201,3.5215,3.5208,3.5237,3.5212,3.5253,3.5229,3.5242,3.5246,3.5248,3.5252,3.5224,3.5272,3.5348,3.5357,3.5255,3.5254,3.5253,0,3.5077,3.5113,3.5148,3.5157,3.5174,3.519,3.5198,3.5211,3.5225,3.5243,3.5252,3.5273,3.5285,3.5301,3.5301,3.5282,3.5343,3.5317,3.5346,3.5346,3.536,3.5359,3.5441,3.5365,3.5365,3.5365,3.5365,0,3.5134,3.5165,3.5168,3.519,3.5225,3.5222,3.5257,3.5263,3.5275,3.5298,3.5288,3.531,3.5307,3.5329,3.5329,3.5364,3.5369,3.5372,3.5371,3.5373,3.5373,3.5382,3.5379,3.5367,3.5367,3.5366,3.5366,0,3.5189,3.5192,3.523,3.5244,3.5248,3.5274,3.5286,3.5307,3.531,3.5339,3.5346,3.5351,3.5377,3.5378,3.5407,3.5407,3.5451,3.5446,3.5447,3.5446,3.5476,3.5474,3.5567,3.558,3.5495,3.5495,3.5496,0,3.5226,3.525,3.5268,3.5283,3.5293,3.5317,3.5332,3.533,3.5346,3.5366,3.5385,3.541,3.543,3.5472,3.5479,3.5502,3.5498,3.5529,3.5501,3.5504,3.5501,3.55,3.5504,3.5535,3.5536,3.5537,3.5537,0,3.5293,3.5294,3.5316,3.5339,3.5358,3.5376,3.5392,3.5405,3.5407,3.5425,3.5452,3.5468,3.5499,3.5525,3.5548,3.5556,3.5548,3.5546,3.5554,3.5557,3.5558,3.556,3.5463,3.5544,3.5543,3.5543,3.5543,3.5542,3.5341,3.5363,3.5379,3.5405,3.5418,3.5435,3.5456,3.5463,3.5486,3.5512,3.551,3.554,3.5556,3.5586,3.5597,3.5621,3.561,3.5622,3.5625,3.5628,3.5632,3.5553,3.5625,3.5625,3.5624,3.5624,3.5624,0,3.5408,3.5419,3.5443,3.5468,3.5489,3.548,3.5498,3.5516,3.5544,3.556,3.5581,3.5613,3.5639,3.5648,3.5673,3.5691,3.5688,3.5698,3.5697,3.57,3.5639,3.5631,3.57,3.57,3.57,3.57,3.57,3.57,3.5446,3.5483,3.5487,3.5531,3.5541,3.5572,3.5584,3.56,3.5613,3.565,3.5672,3.5678,3.5692,3.5719,3.5742,3.5744,3.5755,3.5767,3.5768,3.5711,3.5704,3.5696,3.5688,3.5769,3.5769,3.5826,3.5827,3.5827]}]]